Weather in Ontario

United States     44°01′35″N   116°57′46″W
temp.,
°C
wind,
m/s
gust,
m/s
humid.,
%
clouds,
%
prec.,
mm/h
press.,
hPa
HPBL,
m
16 may, sun
sun1623:00+15nnw33443 0.0 100925
02:00+12nw22560 0.0 101015
05:00+11nw22601 0.0 101112
08:00+16nnw34480 0.0 1011304
11:00+23nnw23340 0.0 1009923
14:00+27nw32210 0.0 10072496
17:00+28nnw55190 0.0 10042032
20:00+20wnw22290 0.0 100411
17 may, mon
mon1723:00+17nw33400 0.0 100619
02:00+14nw12520 0.0 100711
05:00+13nne11600 0.0 100811
08:00+17ese22480 0.0 1010262
11:00+24wnw01350 0.0 1008799
14:00+27nnw25255 0.0 10061873
17:00+29wsw67160 0.0 10033425
20:00+22wnw46290 0.0 100361
18 may, tue
tue1823:00+17nw6125074 0.0 1007280
02:00+14wnw3455100 0.0 101060
05:00+12w36545 0.0 101295
08:00+15w67420 0.0 1014803
11:00+19w463316 0.0 10131938
14:00+22w68185 0.0 10102576
17:00+20n87330 0.0 10101228
20:00+14nnw49404 0.0 1010158
19 may, wed
wed1923:00+11nw510384 0.0 1011208
02:00+7nw46465 0.0 1012113
05:00+6nw335180 0.0 101246
08:00+11nnw5647100 0.0 1011574
11:00+13nnw5545100 0.0 10091036
14:00+16nw7742100 0.0 10081859
17:00+16nnw893426 0.0 10062120
20:00+11nnw610485 0.0 1008294
20 may, thu
thu2023:00+8nnw3453100 0.0 101082
02:00+5wnw22674 0.0 101114
05:00+3nw227057 0.0 101119
08:00+8nnw345260 0.0 1010427
11:00+15nnw563498 0.0 10071758
14:00+18nnw662878 0.0 10042425
17:00+16nnw7935100 0.0 10031236
20:00+13n6114495 0.0 1004676